Preview of NWS' New Version of Forecast
This preview is not operational and should not be used for support decisions.

Regional Weather Roundup (RWR)

Issued by National Weather Service (NWS)

                            
000
ASUS43 KMKX 200300
RWRWI 

WISCONSIN REGIONAL WEATHER ROUNDUP
NATIONAL WEATHER SERVICE MILWAUKEE/SULLIVAN WI
1000 PM CDT MON AUG 19 2019

NOTE: "FAIR" INDICATES FEW OR NO CLOUDS BELOW 12,000 FEET WITH NO
SIGNIFICANT WEATHER AND/OR OBSTRUCTIONS TO VISIBILITY.

WIZ001-002-006>008-014>016-023>028-200400-
NORTHWEST WISCONSIN
  
CITY           SKY/WX    TMP DP  RH WIND       PRES   REMARKS
SUPERIOR ARPT  FAIR      68  58  70 CALM      29.95R                  
ASHLAND        FAIR      67  56  67 SW10      29.96S                  
HAYWARD        FAIR      64  56  75 CALM      30.01R                  
SIREN          FAIR      67  58  71 S5        30.00R                  
CUMBERLAND     FAIR      59  55  88 S3        30.02R                  
RICE LAKE      FAIR      62  46  56 CALM      30.02S                  
CHETEK         NOT AVBL                                               
LADYSMITH      FAIR      61  58  91 S3        30.05R                  
EAU CLAIRE     NOT AVBL                                               
MENOMONIE      FAIR      60  57  91 CALM      30.01R                  
NEW RICHMOND   FAIR      64  58  80 CALM      30.01R                  
OSCEOLA        FAIR      65  60  85 S5        30.02R                  
$$
 
WIZ003>005-009-010-017-018-200400-
NORTH CENTRAL WISCONSIN
  
CITY           SKY/WX    TMP DP  RH WIND       PRES   REMARKS
MANITOWISH WTR FAIR      61  55  81 SW5       30.02R                  
ARBOR VITAE    NOT AVBL                                               
WOODRUFF       NOT AVBL                                               
RHINELANDER    FAIR      58  53  84 W3        30.04R                  
EAGLE RIVER    FAIR      57  55  91 SW3       30.02R                  
LAND O LAKES   NOT AVBL                                               
PHILLIPS       NOT AVBL                                               
TOMAHAWK       FAIR      55  53  93 CALM      30.04R                  
MEDFORD        FAIR      56  55  95 S5        30.03S                  
MERRILL        NOT AVBL                                               
$$
 
WIZ029-030-035-036-043>047-200400-
CENTRAL WISCONSIN
  
CITY           SKY/WX    TMP DP  RH WIND       PRES   REMARKS
WAUSAU         FAIR      62  56  80 CALM      30.02R                  
MOSINEE        CLEAR     61  55  82 CALM      30.04R                  
MARSHFIELD     FAIR      61  56  83 CALM      30.03R                  
STEVENS POINT  NOT AVBL                                               
WAUPACA        FAIR      62  60  92 CALM      30.03R                  
WAUTOMA        FAIR      61  59  93 CALM      30.03R                  
WISC RAPIDS    FAIR      61  57  87 CALM      30.03R                  
CAMP DOUGLAS   NOT AVBL                                               
$$
 
WIZ011>013-019>022-031-037>040-048>050-200400-
NORTHEAST WISCONSIN
  
CITY           SKY/WX    TMP DP  RH WIND       PRES   REMARKS
ANTIGO         FAIR      55  54  94 CALM      30.05R                  
SHAWANO        FAIR      61  58  91 CALM      30.02R                  
OCONTO         FAIR      58  56  92 CALM      30.01R                  
STURGEON BAY   FAIR      64  60  87 S6        30.02R                  
GREEN BAY      FAIR      63  59  87 CALM      30.02R                  
MANITOWOC      FAIR      62  61  96 CALM      30.03R                  
APPLETON       PTCLDY    70  50  49 SW6       30.01S                  
CLINTONVILLE   NOT AVBL                                               
OSHKOSH        FAIR      64  59  83 CALM      30.01S                  
$$
 
WIZ032>034-041-042-053>061-200400-
SOUTHWEST WISCONSIN
  
CITY           SKY/WX    TMP DP  RH WIND       PRES   REMARKS
LA CROSSE      FAIR      68  61  78 SE6       30.01R                  
SPARTA         FAIR      60  58  94 CALM      30.04R                  
VIROQUA        FAIR      66  62  85 CALM      30.05R                  
BOSCOBEL       FAIR      63  61  93 CALM      30.02R                  
PRAIRIE DU CHI FAIR      66  62  87 CALM      30.01R                  
PLATTEVILLE    FAIR      69  66  89 E3        30.03S                  
$$

WIZ056-057-062-063-064-067-068-200400-
SOUTH CENTRAL WISCONSIN
  
CITY           SKY/WX    TMP DP  RH WIND       PRES   REMARKS
REEDSBURG      FAIR      63  63 100 CALM      30.03R                  
BARABOO/DELLS  FAIR      63  60  91 CALM      30.03S                  
LONE ROCK      FAIR      65  63  93 CALM      30.02R                  
MINERAL POINT  FAIR      72  61  68 MISG      30.04R                  
MADISON        FAIR      64  61  90 CALM      30.01S                  
MIDDLETON      FAIR      66  27  22 CALM      30.03R                  
WATERTOWN      FAIR      66  66  99 CALM      30.02R                  
MONROE         FAIR      74  64  71 CALM      30.03R                  
JANESVILLE     FAIR      72  70  94 CALM      30.02R                  
$$
 
WIZ051-052-058>065-066-070>072-200400-
SOUTHEAST WISCONSIN
  
CITY           SKY/WX    TMP DP  RH WIND       PRES   REMARKS
MILWAUKEE      FAIR      73  67  81 S5        30.02R                  
WAUKESHA       FAIR      70  63  78 CALM      30.04R                  
MILWAUKEE/TIMM FAIR      70  61  73 CALM      30.03R                  
RACINE         FAIR      72  68  87 CALM      30.03R                  
KENOSHA        MOCLDY    72  70  93 S3        30.03R                  
FOND DU LAC    FAIR      63  59  87 CALM      30.02S                  
SHEBOYGAN      FAIR      63  60  90 CALM      30.02S                  
WEST BEND      FAIR      64  64 100 CALM      30.03S                  
JUNEAU         NOT AVBL                                               
$$

LSZ147-162-200400-
LAKE SUPERIOR
  
STATION/POSITION TIME  TEMP    WIND        PRES    WAVE
                       AIR SEA DIR/SP/G            HT/PER
                 (UTC) (F)     (DEG/KT/KT) (MB)    (FT/S)
W MID LAKE BUOY  0150   67 63  220/ 14/ 17 1011.7R   2/ 4
DEVILS ISLAND    0200   71     210/ 10/ 12 1012.9R
SAXON HARBOR     0230   70     180/  5/  9 1013.9R
$$
 
LMZ867-665-643>646-200400-
LAKE MICHIGAN
  
STATION/POSITION TIME  TEMP    WIND        PRES    WAVE
                       AIR SEA DIR/SP/G            HT/PER
                 (UTC) (F)     (DEG/KT/KT) (MB)    (FT/S)
N MID LAKE BUOY  0240   70 70  210/ 12/ 14 1016.1F
NORTHPORT PIER   0240   65     150/  2/  2 1015.6S
KEWAUNEE LAKESHO 0224   67     220/  1/  4 1015.7
SHEBOYGAN LAKESH 0200   71     200/  4/  4 1016.4R
PORT WASHINGTON  0230   72      CALM  /  2 1017.3S
S MID LAKE BUOY  0240   74 75   90/  6/  8 1016.6R
KENOSHA   LAKESH 0200   74     140/  1/  2 1015.6
$$

TC  - TEMPERATURE IN CELSIUS
VSB - VISIBILITY IN STATUTE MILES
WCI - WIND CHILL INDEX
HX  - HEAT INDEX